SCP
0 0 0 0 0 0 0 0 0 0 0 0 0 0 0 0 0 0 0 0 0 0 0 0 0 0 0 0 0 0 0 0 0 0 0 0 0 0 0 0 0 0 0 0
0 0 0 0 0 0 0 0 0 0 0 0 0 0 0 0 0 0 0 0 0 0 0 0 0 0 0 0 0 0 0 -0 -0 0 0 0 0 0 -0 0 0 0 -0 -0
0 0 0 0 0 0 0 0 0 0 0 0 0 0 0 0 0 0 0 0 0 0 0 0 0 0 0 0 0 -0 0 -0 0 0 0 -0 -0 0 0 0 -0 0 0 0
0 0 0 0 0 0 0 0 0 0 0 0 0 0 0 0 0 0 0 0 0 0 0 0 0 0 0 0 0 0 0 0 0 0 0 0 0 0 0 -0 -0 0 0 0
0 0 0 0 0 0 0 0 0 0 0 0 0 0 0 0 0 0 0 0 0 0 0 -0 -0 -0 -0 -0 -0 -0 0 0 0 0 0 0 0 0 0 0 -0 -0 -0 -0
0 0 0 0 0 0 0 0 0 0 0 0 0 0 0 0 0 0 0 -0 -0 -0 -0 -0 -0 -0 -0 -0 -0 -0 0 0 0 0 0 0 -0 -0 -0 -0 -0 -0 -0 -0
-0 -0 -0 0 0 0 0 0 0 0 0 0 0 0 0 0 0 0 0 0 -0 -0 -0 -0 -0 -0 -0 -0 -0 0 0 0 0 -0 -0 -0 -0 -0 -0 -0 -0 -0 -0 0
-0 -0 0 0 0 0 0 0 0 0 0 0 0 0 0 0 0 0 0 0 -0 -0 -0 -0 -0 -0 -0 -0 -0 -0 -0 -0 -0 -0 -0 -0 0 0 0 -0 0 0 0 0
-0 0 -0 -0 0 -0 -0 -0 0 0 0 0 0 0 0 0 0 0 0 0 -0 -0 -0 -0 -0 -0 -0 -0 -0 -0 -0 -0 -0 -0 0 0 -0 -0 0 0 0 0 0 0
-0 -0 -0 -0 -0 0 -0 -0 -0 0 0 -0 -0 -0 -0 -0 -0 0 0 -0 -0 -0 -0 -0 -0 -0 -0 0 0 0 0 0 0 0 0 0 0 0 0 0 0 0 0 0
0 -0 0 -0 -0 -0 -0 -0 -0 -0 -0 -0 -0 -0 -0 -0 -0 -0 -0 0 0 0 -0 -0 0 0 0 0 0 0 0 0 -0 -0 -0 0 0 0 0 0 0 0 0 0
0 -0 -0 -0 0 0 -0 -0 -0 -0 -0 -0 -0 -0 -0 -0 -0 -0 -0 0 0 0 0 0 0 0 0 0 0 0 -0 -0 0 0 0 0 0 0 0 0 0 0 0 0
0 0 0 0 0 0 0 0 -0 -0 -0 -0 -0 0 -0 0 0 0 0 0 0 0 0 0 0 0 0 0 0 0 0 0 0 0 0 0 0 0 0 0 0 0 0 0
0 0 -0 0 0 0 0 0 0 0 0 0 0 0 0 0 0 0 0 0 0 0 0 0 0 0 0 0 0 0 0 0 0 0 0 0 0 0 0 0 0 0 0 0
0 0 0 0 0 0 0 0 0 0 0 0 0 0 0 0 0 0 0 0 0 0 0 0 0 0 0 0 0 0 0 0 0 0 0 0 0 0 0 0 0 0 0 0
0 0 0 0 0 0 0 0 0 0 0 0 0 0 0 0 0 0 0 0 0 0 0 0 0 0 0 0 0 0 0 0 0 0 0 0 0 0 0 0 0 0 0 0
0 0 0 0 0 0 0 0 0 0 0 0 0 0 0 0 0 0 0 0 0 0 0 0 0 0 0 0 0 0 0 0 0 0 0 0 0 0 0 0 0 0 0 0
0 0 0 0 0 0 0 0 0 0 0 0 0 0 0 0 0 0 0 0 0 0 0 0 0 0 0 0 0 0 0 0 0 0 0 0 0 0 0 0 0 0 0 0
0 0 0 0 0 0 0 0 0 0 0 0 0 0 0 0 0 0 0 0 0 0 0 0 0 0 0 0 0 0 0 0 0 0 0 0 0 0 0 0 0 0 0 0
0 0 0 0 -0 -0 0 0 0 0 0 0 0 0 0 0 0 0 0 0 0 0 0 0 0 0 0 0 0 0 0 0 0 0 0 0 0 0 0 0 0 0 0 0
0 0 0 0 0 0 0 0 0 0 0 0 0 0 0 0 0 0 0 0 0 0 0 0 0 0 0 0 0 0 0 0 0 0 0 0 0 0 0 0 0 0 0 0
0 0 0 0 0 0 0 0 0 0 0 0 0 0 0 0 0 0 0 0 0 0 0 0 0 0 0 0 0 0 0 0 0 0 0 0 0 0 0 0 0 0 0 0
0 0 0 0 0 0 0 0 0 0 0 0 0 0 0 0 0 0 0 0 0 0 0 0 0 0 0 0 0 0 0 0 0 0 0 0 0 0 0 0 0 0 0 0
0 0 0 0 0 0 0 0 0 0 0 0 0 0 0 0 0 0 0 0 0 0 0 0 0 0 0 0 0 0 0 0 0 0 0 0 0 0 0 0 0 0 0 0
0 0 0 0 0 0 0 0 0 0 0 0 0 0 0 0 0 0 0 0 0 0 0 0 0 0 0 0 0 0 0 0 0 0 0 0 0 0 0 0 0 0 0 0
0 0 0 0 0 0 0 0 0 0 0 0 0 0 0 0 0 0 0 0 0 0 0 0 0 0 0 0 0 0 0 0 0 0 0 0 0 0 0 0 0 0 0 0
0 0 0 0 0 0 0 0 0 0 0 0 0 0 0 0 0 0 0 0 0 0 0 0 0 0 0 0 0 0 0 0 0 0 0 0 0 0 0 0 0 0 0 0
Wind_Speed_500mb
10 4 5 8 10 22 22 7 12 4 10 27 14 9 9 13 12 10 11 13 17 19 19 17 18 18 19 23 29 41 52 63 72 76 79 79 79 79 78 80 79 75 74 74
7 2 6 12 17 22 27 11 24 22 25 10 1 3 6 3 3 5 8 11 11 12 15 19 23 23 27 34 43 53 63 67 67 69 70 73 75 77 73 72 75 75 72 69
7 2 9 12 12 24 10 13 11 9 3 6 7 6 6 4 5 6 9 12 12 17 22 26 31 33 37 42 49 58 66 69 68 66 69 70 70 69 68 66 63 63 62 58
8 6 5 2 3 5 11 11 29 5 9 12 8 7 7 8 17 21 22 26 26 27 31 33 33 37 40 41 46 47 56 59 58 60 62 61 59 58 58 55 53 52 51 50
5 5 13 4 9 13 13 9 27 23 10 12 12 6 6 15 21 28 32 31 32 34 35 36 34 35 39 43 43 44 48 49 50 50 51 51 50 50 48 45 44 43 42 39
4 5 6 3 5 12 4 7 19 30 21 21 21 10 8 31 31 31 30 28 28 29 30 33 33 35 37 37 39 41 43 43 43 43 43 42 42 41 39 36 35 33 32 29
8 9 17 4 13 14 3 6 27 45 45 45 16 8 39 43 41 39 38 37 35 34 34 34 34 35 36 38 37 38 38 38 37 36 33 33 32 33 30 28 27 25 23 23
8 7 12 23 16 12 3 3 41 47 59 60 29 38 52 50 49 48 46 44 42 40 39 39 38 37 35 34 33 33 32 30 29 29 27 27 24 24 23 21 19 17 16 14
18 10 2 62 11 36 9 8 34 55 61 59 45 56 60 59 56 54 52 50 47 45 42 40 37 35 32 30 29 28 27 25 23 21 20 18 17 14 14 13 12 10 8 6
3 5 24 44 64 27 32 19 27 51 57 63 60 59 63 63 62 61 59 57 53 51 47 42 39 35 33 29 28 27 26 24 22 20 18 16 14 12 11 9 8 6 6 4
13 21 28 49 58 60 54 31 26 46 55 64 60 60 62 63 63 60 57 56 54 50 46 42 39 36 34 32 30 27 25 22 20 18 17 18 18 17 16 15 14 12 11 9
13 19 9 11 8 24 57 67 40 47 56 64 66 58 62 61 60 59 58 57 55 51 48 45 42 40 38 36 33 31 28 28 29 29 27 25 24 23 20 18 17 17 17 18
21 15 25 27 22 21 28 63 61 50 57 60 66 66 60 61 60 58 59 59 57 53 48 49 47 45 42 41 39 38 36 36 34 33 32 32 30 29 28 28 27 27 29 31
64 50 35 46 17 12 19 34 60 54 55 59 58 62 59 64 63 67 68 63 58 55 54 52 51 49 46 46 45 43 41 40 41 41 40 38 37 37 39 39 38 38 39 41
51 48 54 34 22 25 29 25 51 67 59 66 64 63 66 67 72 70 65 63 60 59 59 59 59 54 53 52 52 49 49 48 47 46 46 47 49 50 50 50 49 49 49 51
27 47 62 68 59 47 33 25 36 64 70 65 71 71 69 66 62 64 64 67 71 72 64 64 65 57 57 59 58 57 58 56 56 57 58 59 59 59 59 60 60 60 60 55
38 33 37 54 64 68 66 52 43 38 60 73 69 69 69 68 68 67 70 71 71 69 67 67 63 61 61 64 64 64 64 65 65 67 69 67 66 67 67 67 69 69 69 63
52 46 34 30 24 31 49 57 57 52 48 54 71 68 72 75 76 72 70 68 70 71 73 69 67 66 65 67 68 70 72 72 74 75 74 75 75 74 74 75 77 79 77 74
61 61 51 42 33 27 23 20 34 49 51 45 53 71 71 74 75 74 70 69 73 76 71 68 68 69 71 71 72 75 77 77 79 79 81 81 83 83 84 85 85 86 86 84
31 47 57 62 64 63 58 52 38 34 50 51 45 50 66 70 72 72 71 74 72 72 67 66 66 71 71 74 74 78 80 82 82 83 83 85 88 89 90 91 92 93 92 92
17 20 24 27 30 32 34 41 55 38 32 46 46 44 44 54 59 61 70 77 72 66 65 65 66 66 67 66 68 76 82 85 85 87 88 88 90 92 94 96 98 98 96 95
14 15 17 19 20 24 25 24 32 48 30 25 28 36 41 43 47 55 60 66 63 59 61 62 60 59 60 63 66 69 72 76 81 85 87 89 92 94 95 95 95 93 91 89
7 5 6 6 5 7 9 11 15 25 28 26 23 23 27 32 36 41 45 44 46 46 50 52 52 52 55 61 64 66 70 74 76 79 82 83 85 86 85 86 84 82 79 77
9 10 11 14 16 17 15 15 15 13 12 12 12 12 14 16 21 23 27 30 35 40 41 42 47 52 56 58 61 63 66 69 71 71 72 72 74 76 78 77 76 72 71 69
20 21 23 25 25 28 25 21 15 13 9 8 7 7 6 7 9 10 13 16 19 24 28 31 36 43 47 47 47 50 53 56 58 60 61 64 66 68 67 65 64 62 60 57
26 26 29 31 32 28 23 17 11 13 11 8 7 7 6 5 3 5 7 10 11 15 18 17 18 21 23 28 32 36 40 44 48 50 52 53 54 54 53 51 50 50 49 46
31 31 30 32 31 28 23 20 16 16 13 12 9 11 10 9 7 5 5 7 10 12 14 16 18 19 20 24 29 31 34 36 38 40 42 44 44 44 43 43 42 40 39 37
Wind_Direction_500mb
272 280 250 263 208 192 202 191 235 12 261 305 334 314 312 323 323 323 352 11 21 23 30 41 55 66 80 97 106 113 117 118 118 119 119 119 117 112 110 108 106 105 107 108
268 132 223 269 229 214 228 235 263 286 284 212 190 271 268 270 335 354 42 43 44 54 57 63 71 80 95 104 114 117 114 113 112 110 109 110 110 110 109 111 114 114 110 109
268 287 278 275 218 188 180 199 189 206 192 175 178 163 223 173 132 102 89 85 76 74 79 84 90 99 107 114 116 116 114 113 114 116 115 114 113 113 113 112 112 109 108 107
287 301 272 332 150 209 230 218 210 261 222 211 145 166 227 180 143 134 123 109 103 101 101 101 102 109 113 118 119 117 116 114 116 118 116 113 112 110 110 110 108 105 105 102
282 276 303 184 200 184 186 279 196 194 185 204 172 151 212 187 156 140 132 127 126 123 123 123 129 131 133 133 130 128 120 118 117 116 114 113 111 110 109 108 104 103 100 98
179 255 254 244 189 198 205 276 190 176 175 171 167 174 176 181 162 146 136 133 132 133 135 134 137 138 138 135 133 129 124 124 122 120 119 118 114 108 105 106 106 105 104 103
207 261 280 154 149 158 221 249 184 180 175 165 185 204 164 171 168 161 157 154 152 151 151 149 149 147 143 140 138 133 131 130 129 125 121 116 118 118 116 114 111 109 103 98
178 223 280 152 123 193 208 147 191 180 184 182 178 166 168 173 175 170 168 166 164 164 161 158 155 152 151 149 147 144 142 140 138 134 134 132 131 128 126 120 114 105 96 86
207 220 45 187 215 204 206 179 191 193 192 187 179 176 176 178 180 179 176 174 174 173 172 169 165 161 161 161 162 159 156 156 155 153 150 144 140 140 136 131 128 126 119 109
299 220 234 229 226 232 229 225 212 203 198 191 191 187 185 184 185 186 186 185 183 183 181 178 175 175 174 180 181 178 177 177 176 174 174 176 178 182 181 181 186 192 198 215
259 275 266 261 240 238 228 233 221 208 206 204 201 199 196 193 193 193 193 192 193 191 188 185 187 188 188 189 193 196 194 197 201 204 207 212 216 220 224 226 230 236 246 258
231 230 233 270 289 237 231 224 219 207 208 209 210 211 205 203 201 199 200 200 201 199 197 196 198 199 202 202 203 206 209 214 218 219 221 225 231 235 239 247 254 259 267 274
247 257 253 264 265 266 263 222 219 219 217 215 213 215 217 212 209 208 208 211 212 209 205 206 208 210 211 213 216 217 217 220 225 230 233 235 240 246 253 258 266 270 271 270
248 251 268 255 253 264 258 225 220 227 223 220 221 219 218 220 217 215 215 217 217 216 215 217 220 220 220 223 226 228 231 234 238 240 242 246 250 253 256 259 262 262 263 266
248 245 244 257 256 251 243 239 219 221 223 218 219 222 222 222 223 223 222 223 222 223 222 222 227 227 227 230 233 234 237 240 245 249 252 253 255 256 258 260 263 265 264 265
248 246 244 242 241 242 240 235 234 223 221 222 221 221 223 228 230 229 229 230 228 228 227 228 233 232 232 237 238 239 241 243 245 247 248 250 253 257 260 263 265 267 268 271
243 246 241 241 240 239 239 245 246 249 233 226 228 227 226 226 228 231 231 232 234 236 237 237 241 240 237 241 244 246 247 248 249 250 252 255 258 260 263 265 267 269 272 273
249 248 253 251 252 245 241 245 245 242 242 239 233 232 229 229 230 231 232 233 236 237 237 237 238 241 242 245 248 251 253 254 254 256 257 258 261 263 265 268 270 272 275 277
238 237 238 236 231 233 241 256 250 240 237 241 237 234 235 235 236 238 238 237 239 242 241 242 242 243 245 246 248 251 253 255 257 259 261 263 265 266 268 270 273 276 278 280
242 243 246 251 255 258 261 257 253 255 237 235 239 238 236 238 239 242 244 246 246 250 253 250 248 248 247 249 250 253 256 258 260 261 263 265 267 269 271 272 275 277 279 281
261 254 248 247 245 247 250 244 235 239 238 231 237 244 245 242 244 246 247 249 248 250 253 253 253 253 253 253 253 255 257 260 263 265 267 268 270 271 273 275 276 279 281 283
273 262 255 251 246 245 246 241 228 221 227 236 243 241 238 240 242 245 248 252 254 252 254 257 258 257 258 259 258 257 259 260 263 265 267 269 271 273 276 278 280 282 284 285
269 246 227 220 211 206 201 203 202 212 224 233 239 240 240 242 244 247 251 253 255 254 254 256 257 257 255 255 256 257 258 259 262 265 268 270 273 277 279 280 281 284 286 288
111 108 112 107 107 108 117 140 163 180 193 206 221 234 236 242 247 250 254 256 257 258 258 255 253 254 254 255 256 258 259 261 263 265 268 272 274 275 277 281 283 284 285 286
106 98 96 99 107 106 110 117 132 141 146 156 164 177 190 209 237 249 254 256 259 262 260 258 259 257 257 260 263 265 267 268 269 269 270 271 273 276 278 279 281 283 284 286
102 98 95 97 97 101 104 107 128 117 101 92 90 83 69 58 13 312 297 292 290 288 284 283 278 277 277 274 271 271 271 271 271 271 273 273 274 275 277 279 281 283 285 286
100 95 94 96 96 97 101 103 106 110 108 96 88 87 78 70 57 26 357 333 319 309 304 305 300 295 290 285 281 278 276 275 275 275 276 278 279 280 281 282 282 284 286 287
Wind_Speed_850mb
10 4 5 8 10 22 22 7 12 4 10 27 14 9 9 13 12 10 11 13 17 19 19 17 18 18 19 23 29 41 52 63 72 76 79 79 79 79 78 80 79 75 74 74
7 2 6 12 17 22 27 11 24 22 25 10 1 3 6 3 3 5 8 11 11 12 15 19 23 23 27 34 43 53 63 67 67 69 70 73 75 77 73 72 75 75 72 69
7 2 9 12 12 24 10 13 11 9 3 6 7 6 6 4 5 6 9 12 12 17 22 26 31 33 37 42 49 58 66 69 68 66 69 70 70 69 68 66 63 63 62 58
8 6 5 2 3 5 11 11 29 5 9 12 8 7 7 8 17 21 22 26 26 27 31 33 33 37 40 41 46 47 56 59 58 60 62 61 59 58 58 55 53 52 51 50
5 5 13 4 9 13 13 9 27 23 10 12 12 6 6 15 21 28 32 31 32 34 35 36 34 35 39 43 43 44 48 49 50 50 51 51 50 50 48 45 44 43 42 39
4 5 6 3 5 12 4 7 19 30 21 21 21 10 8 31 31 31 30 28 28 29 30 33 33 35 37 37 39 41 43 43 43 43 43 42 42 41 39 36 35 33 32 29
8 9 17 4 13 14 3 6 27 45 45 45 16 8 39 43 41 39 38 37 35 34 34 34 34 35 36 38 37 38 38 38 37 36 33 33 32 33 30 28 27 25 23 23
8 7 12 23 16 12 3 3 41 47 59 60 29 38 52 50 49 48 46 44 42 40 39 39 38 37 35 34 33 33 32 30 29 29 27 27 24 24 23 21 19 17 16 14
18 10 2 62 11 36 9 8 34 55 61 59 45 56 60 59 56 54 52 50 47 45 42 40 37 35 32 30 29 28 27 25 23 21 20 18 17 14 14 13 12 10 8 6
3 5 24 44 64 27 32 19 27 51 57 63 60 59 63 63 62 61 59 57 53 51 47 42 39 35 33 29 28 27 26 24 22 20 18 16 14 12 11 9 8 6 6 4
13 21 28 49 58 60 54 31 26 46 55 64 60 60 62 63 63 60 57 56 54 50 46 42 39 36 34 32 30 27 25 22 20 18 17 18 18 17 16 15 14 12 11 9
13 19 9 11 8 24 57 67 40 47 56 64 66 58 62 61 60 59 58 57 55 51 48 45 42 40 38 36 33 31 28 28 29 29 27 25 24 23 20 18 17 17 17 18
21 15 25 27 22 21 28 63 61 50 57 60 66 66 60 61 60 58 59 59 57 53 48 49 47 45 42 41 39 38 36 36 34 33 32 32 30 29 28 28 27 27 29 31
64 50 35 46 17 12 19 34 60 54 55 59 58 62 59 64 63 67 68 63 58 55 54 52 51 49 46 46 45 43 41 40 41 41 40 38 37 37 39 39 38 38 39 41
51 48 54 34 22 25 29 25 51 67 59 66 64 63 66 67 72 70 65 63 60 59 59 59 59 54 53 52 52 49 49 48 47 46 46 47 49 50 50 50 49 49 49 51
27 47 62 68 59 47 33 25 36 64 70 65 71 71 69 66 62 64 64 67 71 72 64 64 65 57 57 59 58 57 58 56 56 57 58 59 59 59 59 60 60 60 60 55
38 33 37 54 64 68 66 52 43 38 60 73 69 69 69 68 68 67 70 71 71 69 67 67 63 61 61 64 64 64 64 65 65 67 69 67 66 67 67 67 69 69 69 63
52 46 34 30 24 31 49 57 57 52 48 54 71 68 72 75 76 72 70 68 70 71 73 69 67 66 65 67 68 70 72 72 74 75 74 75 75 74 74 75 77 79 77 74
61 61 51 42 33 27 23 20 34 49 51 45 53 71 71 74 75 74 70 69 73 76 71 68 68 69 71 71 72 75 77 77 79 79 81 81 83 83 84 85 85 86 86 84
31 47 57 62 64 63 58 52 38 34 50 51 45 50 66 70 72 72 71 74 72 72 67 66 66 71 71 74 74 78 80 82 82 83 83 85 88 89 90 91 92 93 92 92
17 20 24 27 30 32 34 41 55 38 32 46 46 44 44 54 59 61 70 77 72 66 65 65 66 66 67 66 68 76 82 85 85 87 88 88 90 92 94 96 98 98 96 95
14 15 17 19 20 24 25 24 32 48 30 25 28 36 41 43 47 55 60 66 63 59 61 62 60 59 60 63 66 69 72 76 81 85 87 89 92 94 95 95 95 93 91 89
7 5 6 6 5 7 9 11 15 25 28 26 23 23 27 32 36 41 45 44 46 46 50 52 52 52 55 61 64 66 70 74 76 79 82 83 85 86 85 86 84 82 79 77
9 10 11 14 16 17 15 15 15 13 12 12 12 12 14 16 21 23 27 30 35 40 41 42 47 52 56 58 61 63 66 69 71 71 72 72 74 76 78 77 76 72 71 69
20 21 23 25 25 28 25 21 15 13 9 8 7 7 6 7 9 10 13 16 19 24 28 31 36 43 47 47 47 50 53 56 58 60 61 64 66 68 67 65 64 62 60 57
26 26 29 31 32 28 23 17 11 13 11 8 7 7 6 5 3 5 7 10 11 15 18 17 18 21 23 28 32 36 40 44 48 50 52 53 54 54 53 51 50 50 49 46
31 31 30 32 31 28 23 20 16 16 13 12 9 11 10 9 7 5 5 7 10 12 14 16 18 19 20 24 29 31 34 36 38 40 42 44 44 44 43 43 42 40 39 37
Wind_Direction_850mb
272 280 250 263 208 192 202 191 235 12 261 305 334 314 312 323 323 323 352 11 21 23 30 41 55 66 80 97 106 113 117 118 118 119 119 119 117 112 110 108 106 105 107 108
268 132 223 269 229 214 228 235 263 286 284 212 190 271 268 270 335 354 42 43 44 54 57 63 71 80 95 104 114 117 114 113 112 110 109 110 110 110 109 111 114 114 110 109
268 287 278 275 218 188 180 199 189 206 192 175 178 163 223 173 132 102 89 85 76 74 79 84 90 99 107 114 116 116 114 113 114 116 115 114 113 113 113 112 112 109 108 107
287 301 272 332 150 209 230 218 210 261 222 211 145 166 227 180 143 134 123 109 103 101 101 101 102 109 113 118 119 117 116 114 116 118 116 113 112 110 110 110 108 105 105 102
282 276 303 184 200 184 186 279 196 194 185 204 172 151 212 187 156 140 132 127 126 123 123 123 129 131 133 133 130 128 120 118 117 116 114 113 111 110 109 108 104 103 100 98
179 255 254 244 189 198 205 276 190 176 175 171 167 174 176 181 162 146 136 133 132 133 135 134 137 138 138 135 133 129 124 124 122 120 119 118 114 108 105 106 106 105 104 103
207 261 280 154 149 158 221 249 184 180 175 165 185 204 164 171 168 161 157 154 152 151 151 149 149 147 143 140 138 133 131 130 129 125 121 116 118 118 116 114 111 109 103 98
178 223 280 152 123 193 208 147 191 180 184 182 178 166 168 173 175 170 168 166 164 164 161 158 155 152 151 149 147 144 142 140 138 134 134 132 131 128 126 120 114 105 96 86
207 220 45 187 215 204 206 179 191 193 192 187 179 176 176 178 180 179 176 174 174 173 172 169 165 161 161 161 162 159 156 156 155 153 150 144 140 140 136 131 128 126 119 109
299 220 234 229 226 232 229 225 212 203 198 191 191 187 185 184 185 186 186 185 183 183 181 178 175 175 174 180 181 178 177 177 176 174 174 176 178 182 181 181 186 192 198 215
259 275 266 261 240 238 228 233 221 208 206 204 201 199 196 193 193 193 193 192 193 191 188 185 187 188 188 189 193 196 194 197 201 204 207 212 216 220 224 226 230 236 246 258
231 230 233 270 289 237 231 224 219 207 208 209 210 211 205 203 201 199 200 200 201 199 197 196 198 199 202 202 203 206 209 214 218 219 221 225 231 235 239 247 254 259 267 274
247 257 253 264 265 266 263 222 219 219 217 215 213 215 217 212 209 208 208 211 212 209 205 206 208 210 211 213 216 217 217 220 225 230 233 235 240 246 253 258 266 270 271 270
248 251 268 255 253 264 258 225 220 227 223 220 221 219 218 220 217 215 215 217 217 216 215 217 220 220 220 223 226 228 231 234 238 240 242 246 250 253 256 259 262 262 263 266
248 245 244 257 256 251 243 239 219 221 223 218 219 222 222 222 223 223 222 223 222 223 222 222 227 227 227 230 233 234 237 240 245 249 252 253 255 256 258 260 263 265 264 265
248 246 244 242 241 242 240 235 234 223 221 222 221 221 223 228 230 229 229 230 228 228 227 228 233 232 232 237 238 239 241 243 245 247 248 250 253 257 260 263 265 267 268 271
243 246 241 241 240 239 239 245 246 249 233 226 228 227 226 226 228 231 231 232 234 236 237 237 241 240 237 241 244 246 247 248 249 250 252 255 258 260 263 265 267 269 272 273
249 248 253 251 252 245 241 245 245 242 242 239 233 232 229 229 230 231 232 233 236 237 237 237 238 241 242 245 248 251 253 254 254 256 257 258 261 263 265 268 270 272 275 277
238 237 238 236 231 233 241 256 250 240 237 241 237 234 235 235 236 238 238 237 239 242 241 242 242 243 245 246 248 251 253 255 257 259 261 263 265 266 268 270 273 276 278 280
242 243 246 251 255 258 261 257 253 255 237 235 239 238 236 238 239 242 244 246 246 250 253 250 248 248 247 249 250 253 256 258 260 261 263 265 267 269 271 272 275 277 279 281
261 254 248 247 245 247 250 244 235 239 238 231 237 244 245 242 244 246 247 249 248 250 253 253 253 253 253 253 253 255 257 260 263 265 267 268 270 271 273 275 276 279 281 283
273 262 255 251 246 245 246 241 228 221 227 236 243 241 238 240 242 245 248 252 254 252 254 257 258 257 258 259 258 257 259 260 263 265 267 269 271 273 276 278 280 282 284 285
269 246 227 220 211 206 201 203 202 212 224 233 239 240 240 242 244 247 251 253 255 254 254 256 257 257 255 255 256 257 258 259 262 265 268 270 273 277 279 280 281 284 286 288
111 108 112 107 107 108 117 140 163 180 193 206 221 234 236 242 247 250 254 256 257 258 258 255 253 254 254 255 256 258 259 261 263 265 268 272 274 275 277 281 283 284 285 286
106 98 96 99 107 106 110 117 132 141 146 156 164 177 190 209 237 249 254 256 259 262 260 258 259 257 257 260 263 265 267 268 269 269 270 271 273 276 278 279 281 283 284 286
102 98 95 97 97 101 104 107 128 117 101 92 90 83 69 58 13 312 297 292 290 288 284 283 278 277 277 274 271 271 271 271 271 271 273 273 274 275 277 279 281 283 285 286
100 95 94 96 96 97 101 103 106 110 108 96 88 87 78 70 57 26 357 333 319 309 304 305 300 295 290 285 281 278 276 275 275 275 276 278 279 280 281 282 282 284 286 287